EW4606 Weather Reports


time (UTC)temp
C
wind
direction
speed
KPH
gust
KPH
rain 1hr
cm
rain 24hr
cm
rain mn
cm
humidity
%
barometer
mb
20260507011527 15 360 0.0 0.0 0.00 0.00 0.00 22 1016.7
20260507011524 28 205 0.0 0.0 0.00 0.00 0.00 20 1009.5
20260507010030 28 251 0.0 0.0 0.00 0.00 0.00 20 1009.4
20260507004520 28 261 0.0 0.0 0.00 0.00 0.00 19 1009.5
20260507003019 28 264 0.0 0.0 0.00 0.00 0.00 19 1009.5
20260507003013 16 360 0.0 0.0 0.00 0.00 0.00 23 1016.3
20260507001518 28 291 0.0 0.0 0.00 0.00 0.00 18 1009.4
20260507001513 16 360 0.0 0.0 0.00 0.00 0.00 22 1016.1
20260507000023 29 280 0.0 0.0 0.00 0.00 0.00 18 1009.5
20260507000012 16 360 0.0 0.0 0.00 0.00 0.00 22 1015.9
20260506234516 29 244 0.0 0.0 0.00 0.00 0.00 18 1009.5
20260506234512 16 360 0.0 0.0 0.00 0.00 0.00 22 1015.8
20260506233014 28 221 0.0 0.0 0.00 0.00 0.00 19 1009.6
20260506233012 16 360 0.0 0.0 0.00 0.00 0.00 23 1015.7
20260506231516 28 283 0.0 0.0 0.00 0.00 0.00 19 1009.8
20260506231511 16 360 0.0 0.0 0.00 0.00 0.00 22 1015.6
20260506230012 16 360 0.0 0.0 0.00 0.00 0.00 22 1015.7
20260506230010 28 257 0.0 0.0 0.00 0.00 0.00 19 1009.9
20260506224510 16 360 0.0 0.0 0.00 0.00 0.00 22 1015.7
20260506224507 28 94 0.0 0.0 0.00 0.00 0.00 18 1010.1
20260506223015 16 360 0.0 0.0 0.00 0.00 0.00 22 1015.9
20260506223005 27 351 0.0 0.0 0.00 0.00 0.00 19 1010.3
20260506221508 16 360 0.0 0.0 0.00 0.00 0.00 22 1015.8
20260506221504 28 225 0.0 0.0 0.00 0.00 0.00 18 1010.7
20260506220101 28 84 0.0 0.0 0.00 0.00 0.00 19 1010.9
20260506220014 16 360 0.0 0.0 0.00 0.00 0.00 20 1015.9
20260506214601 28 320 0.0 0.0 0.00 0.00 0.00 19 1011.1
20260506214508 16 360 0.0 0.0 0.00 0.00 0.00 21 1016.1
20260506213059 28 208 0.0 0.0 0.00 0.00 0.00 19 1011.4
20260506213004 15 360 0.0 0.0 0.00 0.00 0.00 20 1016.2
20260506211555 28 77 0.0 0.0 0.00 0.00 0.00 20 1011.6
20260506211502 16 360 0.0 0.0 0.00 0.00 0.00 23 1016.2
20260506210049 27 79 0.0 0.0 0.00 0.00 0.00 21 1011.9
20260506210001 16 360 0.0 0.0 0.00 0.00 0.00 24 1016.0
20260506204548 27 30 0.0 0.0 0.00 0.00 0.00 21 1012.0
20260506204501 15 360 0.0 0.0 0.00 0.00 0.00 26 1016.1
20260506203059 15 360 0.0 0.0 0.00 0.00 0.00 26 1016.0
20260506203046 27 88 0.0 0.0 0.00 0.00 0.00 21 1012.2
20260506201600 15 360 0.0 0.0 0.00 0.00 0.00 29 1016.1
20260506201544 26 331 0.0 0.0 0.00 0.00 0.00 22 1012.3
20260506200110 15 360 0.0 0.0 0.00 0.00 0.00 29 1015.8
20260506200044 25 140 0.0 0.0 0.00 0.00 0.00 24 1012.6
20260506194614 15 360 0.0 0.0 0.00 0.00 0.00 30 1015.8
20260506194543 25 79 0.0 0.0 0.00 0.00 0.00 23 1012.7
20260506193052 13 360 0.0 0.0 0.00 0.00 0.00 35 1015.9
20260506193048 25 355 0.0 0.0 0.00 0.00 0.00 25 1012.9
20260506191550 13 360 0.0 0.0 0.00 0.00 0.00 40 1015.8
20260506191538 25 205 0.0 0.0 0.00 0.00 0.00 28 1013.1
20260506190050 13 360 0.0 0.0 0.00 0.00 0.00 40 1015.9
20260506190035 25 250 0.0 0.0 0.00 0.00 0.00 29 1013.2
20260506184549 13 360 0.0 0.0 0.00 0.00 0.00 40 1016.0
20260506184537 24 69 0.0 0.0 0.00 0.00 0.00 30 1013.4
20260506183101 13 360 0.0 0.0 0.00 0.00 0.00 39 1015.9
20260506183032 23 277 0.0 0.0 0.00 0.00 0.00 31 1013.5
20260506181553 13 360 0.0 0.0 0.00 0.00 0.00 41 1015.7
20260506181541 23 257 0.0 0.0 0.00 0.00 0.00 32 1013.7
20260506180045 13 360 0.0 0.0 0.00 0.00 0.00 44 1015.7
20260506180030 24 42 0.0 0.0 0.00 0.00 0.00 32 1013.9
20260506174541 13 360 0.0 0.0 0.00 0.00 0.00 47 1015.4
20260506174533 23 56 0.0 0.0 0.00 0.00 0.00 32 1014.0
20260506173046 23 208 0.0 0.0 0.00 0.00 0.00 35 1014.0
20260506173037 12 360 0.0 0.0 0.00 0.00 0.00 50 1015.3
20260506171541 12 360 0.0 0.0 0.00 0.00 0.00 52 1015.2
20260506171521 22 234 0.0 0.0 0.00 0.00 0.00 37 1014.0
20260506170035 11 360 0.0 0.0 0.00 0.00 0.00 59 1015.0
20260506170020 20 348 0.0 0.0 0.00 0.00 0.00 40 1014.0
20260506164531 10 360 0.0 0.0 0.00 0.00 0.00 65 1014.8
20260506164517 21 248 0.0 0.0 0.00 0.00 0.00 40 1013.9
20260506163030 10 360 0.0 0.0 0.00 0.00 0.00 65 1014.7
20260506163017 20 258 0.0 0.0 0.00 0.00 0.00 40 1013.9
20260506161536 11 360 0.0 0.0 0.00 0.00 0.00 62 1014.5
20260506161513 20 323 0.0 0.0 0.00 0.00 0.00 41 1013.7
20260506160035 11 360 0.0 0.0 0.00 0.00 0.00 61 1014.2
20260506160010 19 248 0.0 0.0 0.00 0.00 0.00 41 1013.6
20260506154521 11 360 0.0 0.0 0.00 0.00 0.00 61 1013.9
20260506154505 18 309 0.0 0.0 0.00 0.00 0.00 44 1013.7
20260506153018 11 360 0.0 0.0 0.00 0.00 0.00 61 1013.9
20260506153002 17 345 0.0 0.0 0.00 0.00 0.00 44 1013.7
20260506151522 10 360 0.0 0.0 0.00 0.00 0.00 64 1013.7
20260506151506 17 281 0.0 0.0 0.00 0.00 0.00 44 1013.7
20260506150100 17 327 0.0 0.0 0.00 0.00 0.00 43 1013.5
20260506150022 8 360 0.0 0.0 0.00 0.00 0.00 63 1013.7
20260506144604 17 223 0.0 0.0 0.00 0.00 0.00 45 1013.4
20260506144511 8 360 0.0 0.0 0.00 0.00 0.00 62 1013.5
20260506143054 16 154 0.0 0.0 0.00 0.00 0.00 46 1013.2
20260506143032 7 360 0.0 0.0 0.00 0.00 0.00 65 1013.6
20260506141555 16 153 0.0 0.0 0.00 0.00 0.00 47 1013.2
20260506141509 6 360 0.0 0.0 0.00 0.00 0.00 69 1013.5
20260506140049 15 153 0.0 0.0 0.00 0.00 0.00 49 1013.1
20260506140010 6 360 0.0 0.0 0.00 0.00 0.00 69 1013.5
20260506134545 14 153 0.0 0.0 0.00 0.00 0.00 51 1013.0
20260506134505 5 360 0.0 0.0 0.00 0.00 0.00 70 1013.3
20260506133056 12 153 0.0 0.0 0.00 0.00 0.00 54 1012.9
20260506133004 5 360 0.0 0.0 0.00 0.00 0.00 70 1013.0
20260506131602 4 360 0.0 0.0 0.00 0.00 0.00 69 1012.8
20260506131541 12 153 0.0 0.0 0.00 0.00 0.00 54 1012.7
20260506130128 4 360 0.0 0.0 0.00 0.00 0.00 68 1012.6
20260506130040 12 153 0.0 0.0 0.00 0.00 0.00 54 1012.6
20260506124555 4 360 0.0 0.0 0.00 0.00 0.00 66 1012.3
20260506124537 12 153 0.0 0.0 0.00 0.00 0.00 54 1012.4
20260506123053 5 360 0.0 0.0 0.00 0.00 0.00 65 1011.8
20260506123036 12 153 0.0 0.0 0.00 0.00 0.00 54 1012.3
20260506121552 5 360 0.0 0.0 0.00 0.00 0.00 64 1011.5
20260506121534 12 153 0.0 0.0 0.00 0.00 0.00 54 1012.2
20260506120051 5 360 0.0 0.0 0.00 0.00 0.00 64 1011.2
20260506120033 12 180 0.0 0.0 0.00 0.00 0.00 52 1012.2
20260506114551 5 360 0.0 0.0 0.00 0.00 0.00 65 1011.1
20260506114536 12 180 0.0 0.0 0.00 0.00 0.00 51 1012.1
20260506113054 6 360 0.0 0.0 0.00 0.00 0.00 64 1011.4
20260506113028 12 180 0.0 0.0 0.00 0.00 0.00 51 1012.0
20260506111551 7 360 0.0 0.0 0.00 0.00 0.00 66 1011.7
20260506111525 13 181 0.0 0.0 0.00 0.00 0.00 51 1011.9
20260506110058 7 360 0.0 0.0 0.00 0.00 0.00 66 1011.8
20260506110026 13 201 0.0 0.0 0.00 0.00 0.00 51 1011.8
20260506104551 7 360 0.0 0.0 0.00 0.00 0.00 60 1011.9
20260506104543 13 201 0.0 0.0 0.00 0.00 0.00 50 1011.7
20260506103120 13 264 0.0 0.0 0.00 0.00 0.00 50 1011.7
20260506103048 6 360 0.0 0.0 0.00 0.00 0.00 59 1011.9
20260506101553 5 360 0.0 0.0 0.00 0.00 0.00 62 1011.1
20260506101517 14 264 0.0 0.0 0.00 0.00 0.00 48 1011.5
20260506100045 4 360 0.0 0.0 0.00 0.00 0.00 64 1011.0
20260506100017 15 264 0.0 0.0 0.00 0.00 0.00 47 1011.6
20260506094552 3 360 0.0 0.0 0.00 0.00 0.00 64 1011.1
20260506094514 15 264 0.0 0.0 0.00 0.00 0.00 47 1011.6
20260506093042 3 360 0.0 0.0 0.00 0.00 0.00 65 1010.9
20260506093014 15 261 0.0 0.0 0.00 0.00 0.00 46 1011.5
20260506091537 3 360 0.0 0.0 0.00 0.00 0.00 64 1010.4
20260506091512 15 265 0.0 0.0 0.00 0.00 0.00 45 1011.6
20260506090036 4 360 0.0 0.0 0.00 0.00 0.00 62 1010.5
20260506090009 15 266 0.0 0.0 0.00 0.00 0.00 45 1011.7
20260506084533 4 360 0.0 0.0 0.00 0.00 0.00 62 1010.3
20260506084508 15 238 0.0 0.0 0.00 0.00 0.00 44 1011.9
20260506083029 4 360 0.0 0.0 0.00 0.00 0.00 62 1010.1
20260506083014 15 254 0.0 0.0 0.00 0.00 0.00 44 1011.9
20260506081528 4 360 0.0 0.0 0.00 0.00 0.00 62 1010.0
20260506081509 15 201 0.0 0.0 0.00 0.00 0.00 43 1011.9
20260506073100 16 201 0.0 0.0 0.00 0.00 0.00 41 1011.8
20260506073019 5 360 0.0 0.0 0.00 0.00 0.00 58 1009.7
20260506071620 16 244 0.0 0.0 0.00 0.00 0.00 40 1011.7
20260506071517 6 360 0.0 0.0 0.00 0.00 0.00 56 1009.6
20260506061556 8 360 0.0 0.0 0.00 0.00 0.00 50 1008.8
20260506061552 16 244 0.0 0.0 0.00 0.00 0.00 40 1011.5
20260506044551 10 360 0.0 0.0 0.00 0.00 0.00 45 1008.3
20260506043049 18 288 0.0 0.0 0.00 0.00 0.00 37 1010.5
20260506043045 11 360 0.0 0.0 0.00 0.00 0.00 42 1008.1
20260506041556 11 360 0.0 0.0 0.00 0.00 0.00 42 1007.9
20260506041545 18 289 0.0 0.0 0.00 0.00 0.00 36 1010.3
20260506040048 19 294 0.0 0.0 0.00 0.00 0.00 35 1010.0
20260506040014 11 360 0.0 0.0 0.00 0.00 0.00 41 1008.0
20260506034642 11 360 0.0 0.0 0.00 0.00 0.00 41 1007.7
20260506034539 20 268 0.0 0.0 0.00 0.00 0.00 34 1009.9
20260506033110 12 360 0.0 0.0 0.00 0.00 0.00 41 1007.5
20260506033038 20 277 0.0 0.0 0.00 0.00 0.00 33 1009.6
20260506031540 20 314 0.0 0.0 0.00 0.00 0.00 32 1009.4
20260506031530 12 360 0.0 0.0 0.00 0.00 0.00 39 1007.3
20260506030055 12 360 0.0 0.0 0.00 0.00 0.00 37 1007.2
20260506030037 21 294 0.0 0.0 0.00 0.00 0.00 31 1009.2
20260506024552 12 360 0.0 0.0 0.00 0.00 0.00 37 1007.1
20260506024543 21 277 0.0 0.0 0.00 0.00 0.00 31 1008.8
20260506023052 12 360 0.0 0.0 0.00 0.00 0.00 37 1006.9
20260506023035 21 296 0.0 0.0 0.00 0.00 0.00 30 1008.7
20260506021554 12 360 0.0 0.0 0.00 0.00 0.00 36 1006.7
20260506021549 22 292 0.0 0.0 0.00 0.00 0.00 29 1008.4
20260506020049 12 360 0.0 0.0 0.00 0.00 0.00 36 1006.5
20260506020034 22 339 0.0 0.0 0.00 0.00 0.00 29 1008.2
20260506014554 13 360 0.0 0.0 0.00 0.00 0.00 32 1006.0
20260506014534 22 233 0.0 0.0 0.00 0.00 0.00 28 1008.0
20260506013150 14 360 0.0 0.0 0.00 0.00 0.00 30 1005.7
20260506013034 23 284 0.0 0.0 0.00 0.00 0.00 28 1007.9